GW0029 Weather Reports


Display with metric or nautical units.
time (UTC)temp
F
wind
direction
speed
MPH
gust
MPH
rain 1hr
in
rain 24hr
in
rain mn
in
humidity
%
barometer
mb
20260831193005 59 181 3.0 6.0 0.00 0.05 0.05 94 1005.9
20260831192004 59 202 1.0 4.0 0.00 0.05 0.05 94 1005.9
20260831191504 60 193 1.0 4.0 0.00 0.05 0.05 94 1005.9
20260831191004 60 186 1.0 5.0 0.00 0.05 0.05 94 1005.9
20260831190503 60 193 3.0 5.0 0.00 0.05 0.05 94 1005.9
20260831190005 60 197 3.0 5.0 0.00 0.05 0.05 95 1005.9
20260831185503 60 190 3.0 6.0 0.00 0.05 0.05 94 1005.9
20260831185005 60 183 3.0 6.0 0.00 0.05 0.05 94 1005.9
20260831184004 60 196 4.0 7.0 0.00 0.05 0.05 94 1005.9
20260831183504 60 195 3.0 7.0 0.00 0.05 0.05 94 1005.9
20260831183005 60 193 2.0 5.0 0.00 0.05 0.05 94 1005.9
20260831182503 60 190 1.0 4.0 0.00 0.05 0.05 94 1005.9
20260831182005 61 196 1.0 5.0 0.00 0.05 0.05 94 1005.9
20260831181004 61 192 1.0 4.0 0.00 0.05 0.05 94 1005.9
20260831180503 61 188 0.0 4.0 0.00 0.05 0.05 93 1005.9
20260831180005 61 218 0.0 8.0 0.00 0.05 0.05 93 1005.9
20260831175503 61 200 1.0 8.0 0.00 0.05 0.05 93 1005.9
20260831175004 62 188 0.0 5.0 0.00 0.05 0.05 93 1005.9
20260831174504 62 211 0.0 4.0 0.00 0.05 0.05 92 1005.9
20260831174004 62 219 1.0 7.0 0.00 0.05 0.05 92 1004.9
20260831173503 63 209 2.0 7.0 0.00 0.05 0.05 92 1004.9
20260831173005 63 197 3.0 6.0 0.00 0.05 0.05 92 1004.9
20260831172004 64 192 2.0 4.0 0.00 0.05 0.05 92 1004.9
20260831171503 64 197 2.0 5.0 0.00 0.05 0.05 92 1004.9
20260831171005 64 209 2.0 5.0 0.00 0.05 0.05 92 1004.9
20260831170004 64 202 3.0 8.0 0.00 0.05 0.05 91 1004.9
20260831165503 64 212 4.0 10.0 0.00 0.05 0.05 91 1004.9
20260831165005 64 227 3.0 10.0 0.00 0.05 0.05 92 1004.9
20260831164503 65 216 1.0 6.0 0.00 0.05 0.05 92 1004.9
20260831164004 65 191 3.0 8.0 0.00 0.05 0.05 92 1004.9
20260831163504 65 196 4.0 11.0 0.00 0.05 0.05 92 1004.9
20260831162004 65 191 4.0 10.0 0.00 0.05 0.05 92 1004.9
20260831161504 66 207 5.0 13.0 0.00 0.05 0.05 92 1004.9
20260831161004 66 209 6.0 13.0 0.00 0.05 0.05 92 1004.9
20260831160503 65 199 7.0 16.0 0.00 0.05 0.05 92 1004.9
20260831160005 65 192 7.0 16.0 0.00 0.05 0.05 93 1004.9
20260831155503 65 190 6.0 12.0 0.00 0.05 0.05 93 1004.9
20260831155004 65 191 6.0 12.0 0.00 0.05 0.05 92 1004.9
20260831154504 65 197 6.0 12.0 0.00 0.05 0.05 92 1004.9
20260831154004 65 199 7.0 12.0 0.00 0.05 0.05 92 1004.9
20260831153504 65 196 7.0 12.0 0.00 0.05 0.05 92 1004.9
20260831152503 65 196 7.0 13.0 0.00 0.05 0.05 92 1004.9
20260831152004 65 198 7.0 15.0 0.00 0.05 0.05 92 1004.9
20260831151005 65 198 5.0 11.0 0.00 0.05 0.05 91 1004.9
20260831150503 65 198 4.0 8.0 0.00 0.05 0.05 90 1004.9
20260831150005 65 185 5.0 10.0 0.00 0.05 0.05 89 1004.9
20260831145503 66 175 5.0 10.0 0.00 0.05 0.05 89 1004.9
20260831145004 66 183 4.0 8.0 0.00 0.05 0.05 89 1004.9
20260831142503 67 179 6.0 13.0 0.00 0.05 0.05 87 1004.9
20260831141504 67 169 5.0 9.0 0.00 0.05 0.05 88 1004.9
20260831140503 67 170 5.0 14.0 0.00 0.05 0.05 89 1005.9
20260831140004 67 179 5.0 14.0 0.00 0.05 0.05 91 1005.9
20260831135504 67 182 5.0 10.0 0.00 0.05 0.05 91 1005.9
20260831134503 67 188 7.0 15.0 0.00 0.05 0.05 91 1005.9
20260831134004 67 176 6.0 15.0 0.00 0.10 0.05 91 1005.9
20260831133504 67 161 4.0 12.0 0.00 0.10 0.05 92 1005.9
20260831133004 66 137 3.0 12.0 0.00 0.10 0.05 92 1005.9
20260831132504 66 102 3.0 7.0 0.00 0.16 0.05 92 1005.9
20260831132004 65 99 1.0 7.0 0.00 0.21 0.05 93 1005.9
20260831131004 65 101 1.0 4.0 0.00 0.21 0.05 93 1005.9
20260831130503 65 90 0.0 4.0 0.00 0.26 0.05 93 1005.9
20260831130005 65 96 1.0 5.0 0.00 0.26 0.05 93 1005.9
20260831125503 64 102 2.0 5.0 0.00 0.26 0.05 93 1005.9
20260831125005 64 97 3.0 6.0 0.00 0.26 0.05 93 1005.9
20260831124503 64 97 3.0 6.0 0.00 0.26 0.05 93 1005.9
20260831124005 64 88 2.0 6.0 0.00 0.26 0.05 93 1005.9
20260831123503 64 76 1.0 6.0 0.00 0.26 0.05 92 1005.9
20260831123004 64 0 0.0 0.0 0.00 0.26 0.05 93 1005.9
20260831122504 64 0 0.0 0.0 0.00 0.26 0.05 92 1006.9
20260831121503 64 91 1.0 6.0 0.00 0.26 0.05 92 1006.9
20260831121005 64 99 4.0 8.0 0.00 0.26 0.05 92 1005.9
20260831120503 64 107 4.0 8.0 0.00 0.26 0.05 92 1005.9
20260831120004 64 108 2.0 7.0 0.00 0.26 0.05 92 1005.9
20260831115503 64 100 3.0 8.0 0.00 0.26 0.05 92 1005.9
20260831115004 64 91 4.0 8.0 0.00 0.26 0.05 92 1005.9
20260831114504 64 88 3.0 7.0 0.00 0.26 0.05 92 1005.9
20260831114005 64 90 3.0 7.0 0.00 0.26 0.05 91 1004.9
20260831113503 63 99 4.0 7.0 0.00 0.26 0.05 91 1004.9
20260831113005 63 115 5.0 8.0 0.00 0.26 0.05 91 1004.9
20260831112004 63 120 6.0 10.0 0.00 0.26 0.05 90 1005.9
20260831111504 63 129 5.0 10.0 0.00 0.21 0.00 90 1005.9
20260831111005 63 152 5.0 8.0 0.00 0.21 0.00 89 1005.9
20260831110504 63 173 5.0 10.0 0.00 0.21 0.00 88 1005.9
20260831110005 63 185 5.0 10.0 0.00 0.21 0.00 87 1005.9
20260831105503 64 188 5.0 10.0 0.00 0.21 0.00 86 1005.9
20260831105005 64 185 5.0 10.0 0.00 0.21 0.00 83 1005.9
20260831104005 65 186 6.0 13.0 0.00 0.21 0.00 81 1005.9
20260831103503 65 181 5.0 13.0 0.00 0.21 0.00 79 1005.9
20260831103005 65 192 5.0 8.0 0.00 0.21 0.00 78 1005.9
20260831102503 66 195 5.0 12.0 0.00 0.21 0.00 77 1004.9
20260831101503 67 193 4.0 9.0 0.00 0.21 0.00 78 1004.9
20260831100503 67 161 5.0 13.0 0.00 0.21 0.00 78 1005.9
20260831100005 67 167 5.0 13.0 0.00 0.21 0.00 77 1005.9
20260831095503 67 187 5.0 12.0 0.00 0.21 0.00 78 1005.9
20260831095005 67 187 8.0 19.0 0.00 0.21 0.00 76 1005.9
20260831094504 67 176 8.0 19.0 0.00 0.21 0.00 76 1005.9
20260831094004 67 175 5.0 15.0 0.00 0.21 0.00 79 1005.9
20260831093503 67 194 4.0 10.0 0.00 0.21 0.00 80 1005.9
20260831093005 67 195 6.0 10.0 0.00 0.21 0.00 79 1005.9
20260831092503 67 189 7.0 15.0 0.00 0.26 0.00 78 1005.9
20260831092004 67 192 7.0 15.0 0.00 0.26 0.00 77 1005.9
20260831091503 67 192 7.0 12.0 0.00 0.26 0.00 78 1005.9
20260831090504 67 179 8.0 18.0 0.00 0.26 0.00 79 1005.9
20260831090004 67 184 8.0 17.0 0.00 0.31 0.00 79 1005.9
20260831085503 67 194 8.0 13.0 0.00 0.36 0.00 80 1005.9
20260831084503 66 200 7.0 13.0 0.00 0.36 0.00 78 1005.9
20260831084004 66 207 6.0 10.0 0.00 0.36 0.00 83 1005.9
20260831083504 66 197 6.0 16.0 0.00 0.36 0.00 84 1005.9
20260831083004 66 187 7.0 16.0 0.00 0.36 0.00 87 1005.9
20260831082005 66 187 7.0 13.0 0.00 0.36 0.00 87 1005.9
20260831081503 65 183 8.0 14.0 0.00 0.36 0.00 88 1005.9
20260831081005 65 182 8.0 14.0 0.00 0.36 0.00 88 1005.9
20260831080007 65 195 7.0 20.0 0.00 0.36 0.00 88 1005.9
20260831075005 65 188 5.0 11.0 0.00 0.36 0.00 89 1005.9
20260831074004 64 195 5.0 9.0 0.00 0.41 0.00 91 1004.9
20260831073503 64 189 5.0 8.0 0.00 0.41 0.00 91 1004.9
20260831073005 63 195 4.0 8.0 0.00 0.41 0.00 92 1004.9
20260831072004 63 197 3.0 8.0 0.00 0.41 0.00 92 1005.9
20260831071503 63 204 2.0 6.0 0.00 0.41 0.00 92 1005.9
20260831071005 63 198 2.0 5.0 0.00 0.41 0.00 92 1005.9
20260831070503 63 192 2.0 6.0 0.00 0.41 0.00 91 1005.9
20260831070005 62 200 2.0 6.0 0.00 0.41 0.00 91 1005.9
20260831065503 63 208 3.0 7.0 0.00 0.41 0.00 91 1005.9
20260831065004 63 203 3.0 8.0 0.00 0.41 0.00 91 1005.9
20260831064503 63 192 2.0 8.0 0.00 0.41 0.00 91 1005.9
20260831063503 62 211 3.0 8.0 0.00 0.41 0.00 91 1005.9
20260831063004 62 203 3.0 8.0 0.00 0.41 0.00 91 1005.9
20260831061004 61 193 2.0 5.0 0.00 0.41 0.00 91 1005.9
20260831060005 60 222 2.0 6.0 0.00 0.41 0.00 91 1005.9
20260831055504 60 217 2.0 6.0 0.00 0.41 0.00 91 1005.9
20260831055004 60 214 2.0 6.0 0.00 0.41 0.00 91 1005.9
20260831054504 60 220 1.0 6.0 0.00 0.41 0.00 91 1005.9
20260831054004 60 231 0.0 4.0 0.00 0.41 0.00 90 1005.9
20260831053503 60 311 0.0 4.0 0.00 0.41 0.00 90 1005.9
20260831053004 60 256 1.0 8.0 0.00 0.41 0.00 90 1005.9
20260831052504 60 249 2.0 8.0 0.00 0.41 0.00 89 1005.9
20260831052005 60 246 1.0 6.0 0.00 0.41 0.00 89 1005.9
20260831051503 60 219 2.0 6.0 0.00 0.41 0.00 89 1004.9
20260831051004 60 218 3.0 7.0 0.00 0.41 0.00 89 1004.9
20260831050504 59 232 3.0 8.0 0.00 0.41 0.00 89 1004.9
20260831045503 59 223 2.0 8.0 0.00 0.41 0.00 90 1005.9
20260831045005 59 226 3.0 8.0 0.00 0.48 0.00 91 1005.9
20260831044503 59 230 3.0 6.0 0.00 0.48 0.00 91 1005.9
20260831044005 59 222 2.0 5.0 0.00 0.48 0.00 91 1004.9
20260831043004 60 205 3.0 10.0 0.00 0.48 0.00 92 1004.9
20260831042503 59 222 3.0 10.0 0.00 0.48 0.00 92 1005.9
20260831041503 59 215 2.0 6.0 0.00 0.48 0.00 93 1005.9
20260831041004 59 226 3.0 6.0 0.00 0.48 0.00 93 1005.9
20260831035503 59 229 3.0 9.0 0.00 0.48 0.00 93 1004.9
20260831035005 59 221 2.0 7.0 0.00 0.48 0.00 94 1004.9
20260831034503 59 207 1.0 6.0 0.00 0.48 0.00 95 1004.9
20260831034004 59 214 1.0 4.0 0.00 0.48 0.00 95 1004.9
20260831033503 59 238 2.0 6.0 0.00 0.48 0.00 95 1004.9
20260831033005 59 241 2.0 8.0 0.00 0.48 0.00 95 1004.9
20260831032503 59 223 2.0 8.0 0.00 0.48 0.00 95 1005.9
20260831032005 59 200 2.0 6.0 0.00 0.48 0.00 96 1005.9
20260831031503 60 229 3.0 8.0 0.00 0.48 0.00 96 1005.9
20260831031005 60 238 2.0 8.0 0.00 0.48 0.00 96 1004.9
20260831030503 60 243 1.0 5.0 0.00 0.48 0.00 96 1004.9
20260831030004 60 233 1.0 5.0 0.00 0.48 0.00 96 1004.9
20260831025504 60 226 2.0 5.0 0.00 0.48 0.00 96 1005.9
20260831025004 60 214 2.0 9.0 0.00 0.48 0.00 96 1005.9
20260831024503 60 213 3.0 9.0 0.00 0.48 0.00 95 1005.9
20260831024005 60 213 2.0 7.0 0.00 0.48 0.00 96 1005.9
20260831023503 60 197 1.0 5.0 0.00 0.48 0.00 96 1005.9
20260831023004 60 242 1.0 7.0 0.00 0.48 0.00 95 1005.9
20260831022503 60 257 1.0 7.0 0.00 0.48 0.00 95 1005.9
20260831022005 60 203 2.0 6.0 0.00 0.48 0.00 95 1005.9
20260831021004 60 237 1.0 5.0 0.00 0.48 0.00 95 1005.9
20260831020503 60 195 2.0 7.0 0.00 0.48 0.00 95 1005.9
20260831020005 60 225 2.0 7.0 0.00 0.48 0.00 95 1005.9
20260831015503 60 264 2.0 6.0 0.00 0.48 0.00 95 1005.9
20260831015005 60 245 2.0 8.0 0.00 0.48 0.00 95 1005.9
20260831014503 60 216 3.0 10.0 0.00 0.48 0.00 95 1005.9
20260831014004 60 218 3.0 10.0 0.00 0.48 0.00 95 1005.9
20260831013005 60 206 1.0 6.0 0.00 0.48 0.00 95 1005.9
20260831012503 60 206 1.0 6.0 0.00 0.48 0.00 95 1005.9
20260831012005 60 252 2.0 6.0 0.00 0.48 0.00 95 1005.9
20260831011504 60 259 2.0 6.0 0.00 0.48 0.00 95 1005.9
20260831011004 60 240 1.0 5.0 0.00 0.48 0.00 95 1004.9
20260831010005 60 213 2.0 8.0 0.00 0.48 0.00 95 1004.9
20260831005504 60 220 1.0 8.0 0.00 0.48 0.00 95 1005.9
20260831005004 60 250 2.0 5.0 0.00 0.48 0.00 95 1005.9
20260831004504 60 239 1.0 5.0 0.00 0.48 0.00 95 1005.9
20260831004005 59 271 1.0 5.0 0.00 0.48 0.00 94 1005.9
20260831003004 59 238 1.0 5.0 0.00 0.48 0.00 94 1005.9
20260831002504 59 258 1.0 4.0 0.00 0.48 0.00 94 1005.9
20260831001503 59 239 1.0 5.0 0.00 0.48 0.00 93 1005.9
20260831001005 60 249 1.0 4.0 0.00 0.48 0.00 92 1005.9
20260831000503 60 289 1.0 5.0 0.00 0.48 0.00 92 1005.9
20260831000005 60 307 0.0 5.0 0.00 0.48 0.00 92 1005.9
20260830235503 60 262 3.0 14.0 0.00 0.48 0.00 92 1005.9
20260830235005 60 263 3.0 14.0 0.00 0.48 0.00 91 1005.9
20260830234503 60 276 1.0 5.0 0.00 0.48 0.00 92 1005.9
20260830233005 60 270 1.0 8.0 0.00 0.48 0.00 91 1005.9
20260830232503 60 297 0.0 3.0 0.00 0.48 0.00 91 1005.9
20260830232004 60 292 1.0 10.0 0.00 0.48 0.00 91 1005.9
20260830231503 60 295 4.0 12.0 0.00 0.48 0.00 91 1005.9
20260830231006 60 279 6.0 12.0 0.00 0.48 0.00 91 1005.9
20260830230503 61 270 6.0 12.0 0.00 0.48 0.00 91 1005.9
20260830230004 61 270 6.0 16.0 0.00 0.48 0.00 92 1005.9
20260830225504 61 265 7.0 16.0 0.00 0.48 0.00 92 1005.9
20260830225005 61 267 5.0 15.0 0.00 0.48 0.00 92 1005.9
20260830224503 61 267 4.0 12.0 0.00 0.48 0.00 92 1005.9
20260830224004 61 270 4.0 11.0 0.00 0.48 0.00 92 1005.9
20260830223007 61 264 4.0 10.0 0.00 0.48 0.00 92 1005.9
20260830222504 61 275 3.0 8.0 0.00 0.48 0.00 92 1005.9
20260830222005 61 272 3.0 14.0 0.00 0.48 0.00 92 1005.9
20260830221504 60 273 4.0 14.0 0.00 0.48 0.00 92 1005.9
20260830221005 61 263 5.0 16.0 0.00 0.48 0.00 91 1004.9
20260830220504 61 261 5.0 16.0 0.00 0.48 0.00 91 1004.9
20260830220004 61 265 5.0 10.0 0.00 0.48 0.00 91 1004.9
20260830215503 61 263 6.0 12.0 0.00 0.48 0.48 91 1005.9
20260830215004 61 275 5.0 12.0 0.00 0.48 0.48 92 1005.9
20260830214503 61 280 4.0 9.0 0.00 0.48 0.48 92 1005.9
20260830214005 61 274 3.0 11.0 0.00 0.48 0.48 92 1004.9
20260830213504 61 274 4.0 12.0 0.00 0.48 0.48 92 1004.9
20260830213005 61 271 7.0 17.0 0.00 0.48 0.48 92 1004.9
20260830212503 61 274 8.0 17.0 0.00 0.48 0.48 92 1005.9
20260830212005 61 282 6.0 15.0 0.00 0.48 0.48 92 1005.9
20260830211503 61 282 5.0 12.0 0.00 0.48 0.48 92 1005.9
20260830210504 61 270 7.0 15.0 0.00 0.48 0.48 93 1005.9
20260830205503 62 276 8.0 18.0 0.00 0.48 0.48 93 1005.9
20260830204004 62 273 6.0 14.0 0.00 0.48 0.48 95 1005.9
20260830203006 62 258 7.0 14.0 0.00 0.48 0.48 94 1005.9
20260830202503 62 270 7.0 17.0 0.00 0.48 0.48 94 1005.9
20260830202005 62 278 6.0 17.0 0.00 0.48 0.48 95 1005.9
20260830201503 62 273 6.0 12.0 0.00 0.48 0.48 95 1005.9
20260830200504 62 282 5.0 11.0 0.00 0.48 0.48 96 1004.9
20260830200004 62 271 6.0 12.0 0.00 0.48 0.48 95 1004.9
20260830195503 62 267 7.0 13.0 0.00 0.48 0.48 96 1004.9
20260830195005 62 276 7.0 13.0 0.00 0.48 0.48 96 1004.9
20260830194503 62 277 7.0 13.0 0.00 0.48 0.48 96 1004.9
20260830194006 62 270 6.0 13.0 0.00 0.48 0.48 96 1003.9
20260830193503 62 281 5.0 12.0 0.00 0.48 0.48 97 1003.9